Regional Weather Roundup
Issued by NWS

Home | Current Version | Previous Version | Text Only | Print | Product List | Glossary On
Versions: 1 2 3 4 5 6 7 8 9 10 11 12 13 14 15 16 17 18 19 20 21 22 23 24 25 26 27 28 29 30 31 32 33 34 35 36 37 38 39 40 41 42 43 44 45 46 47 48 49 50
000
ASHW40 PHFO 270232
RWRHI

WEATHER ROUNDUP FOR HAWAII
NATIONAL WEATHER SERVICE HONOLULU HI
400 PM HST MON SEP 26 2016

THIS IS AN AUTOMATED REPORT THAT HAS NOT BEEN QUALITY CONTROLLED.

NOTE..."FAIR" INDICATES FEW OR NO CLOUDS BELOW 12,000 FEET WITH NO
SIGNIFICANT WEATHER AND/OR OBSTRUCTIONS TO VISIBILITY.

* - THESE SITES REPORT LIMITED FIELDS

HIZ001>004-270300-
KAUAI-NIIHAU-

CITY           SKY/WX    TMP DP  RH WIND       PRES   REMARKS
LIHUE APT      MOSUNNY   83  71  67 NE17      30.00S
PORT ALLEN*      N/A     84 N/A N/A NE23G32     N/A
POIPU*           N/A     84 N/A N/A E10G23      N/A
PRINCEVILLE*     N/A     79 N/A N/A E10G17      N/A
KOKOLE POINT*    N/A     86 N/A N/A MISG        N/A
MOLOAA DAIRY*    N/A     81  70  69 E5G14       N/A
WAIMEA HTS*    NOT AVBL
PUU OPAE*      NOT AVBL
PUU LUA*       NOT AVBL
MAKAHA RIDGE*    N/A     81  68  65 SW2         N/A
$$

HIZ005>011-270300-
OAHU-

CITY           SKY/WX    TMP DP  RH WIND       PRES   REMARKS
HONOLULU       MOSUNNY   82  68  62 NE10      29.95S
KALAELOA       LGT RAIN  84  69  60 NE12G22   29.96S
KANEOHE MCB    PTSUNNY   81  69  67 E12       29.95R
WHEELER FIELD  FAIR      79  68  67 NE12G22   29.97
BELLOWS*         N/A    N/A N/A N/A NE17        N/A
WHEELER*       NOT AVBL
WAIANAE HARBOR NOT AVBL
DILLINGHAM*      N/A     82  66  57 MISG        N/A
KAHUKU TRN*      N/A     81  72  74 W9G22       N/A
KAWAILOA*        N/A     77  66  69 E12G26      N/A
KII*             N/A     81  72  74 E17         N/A
MAKUA RANGE*     N/A     86  68  54 NW12G22     N/A
OAHU FOREST NW NOT AVBL
SCHOFIELD BRK*   N/A     75  61  60 MISG        N/A
SCHOFIELD S*   NOT AVBL
WAIANAE VLY*   NOT AVBL
KUAOKALA*      NOT AVBL
HONOULIUULI*   NOT AVBL
MOKUOLOE IS*   NOT AVBL
PALEHUA*       NOT AVBL
WAIAWA PHB*    NOT AVBL
$$

HIZ012>013-270300-
MOLOKAI-

CITY           SKY/WX    TMP DP  RH WIND       PRES   REMARKS
MOLOKAI AIRPT  MOSUNNY   83  67  58 NE12G28   29.97R
KALAUPAPA      NOT AVBL
MAKAPULAPAI*     N/A     82  70  65 E20G30      N/A
MOLOKAI 1*     NOT AVBL
PUU ALII*        N/A     65  61  88 N3G12       N/A
$$

HIZ016-270300-
KAHOOLAWE-

CITY           SKY/WX    TMP DP  RH WIND       PRES   REMARKS
KAHOOLAWE*       N/A     73 N/A N/A E1          N/A
HAKIOAWA*        N/A     75  68  77 MISG      30.37S
HONOKANAIA*      N/A     82  66  57 NE18G32   29.87F
KANELOA*         N/A     81  66  61 E21G35    30.01S
KEALIALALO*    NOT AVBL
LUA MAKIKA*    NOT AVBL
$$

HIZ014>015-270300-
LANAI-

CITY           SKY/WX    TMP DP  RH WIND       PRES   REMARKS
LANAI CITY     FAIR      79  67  66 NE21      29.99S
LANAI 1*       NOT AVBL
$$

HIZ017>028-270300-
MAUI-

CITY           SKY/WX    TMP DP  RH WIND       PRES   REMARKS
KAHULUI        MOSUNNY   85  65  51 NE16G26   29.95S
KAPALUA-W MAUI MOSUNNY   82  64  54 E14G26    29.95S
HANA AIRPORT     N/A     81  72  74 NE7       30.05
HANA*            N/A     82 N/A N/A E9          N/A
HALEAKALA SUMM   N/A     48  34  57 E15         N/A
MAALAEA BAY*     N/A     86 N/A N/A N29G41      N/A
HALEAKALA*     NOT AVBL
KAUPO GAP*     NOT AVBL
KULA 1*          N/A     59  57  93 NW5         N/A
$$

HIZ023>026-270300-
BIG ISLAND OF HAWAII COAST AND LOWER SLOPES-

CITY           SKY/WX    TMP DP  RH WIND       PRES   REMARKS
KAILUA KONA    MOSUNNY   85  70  60 W9        29.89S
HILO           PTSUNNY   81  68  64 NE7       29.96S
HONOKAA*         N/A     73 N/A N/A VRB1        N/A
KAWAIHAE MWT*    N/A     84 N/A N/A W13         N/A
KAWAIHAE*        N/A     82 N/A N/A W12       29.89S
SOUTH POINT*     N/A     73 N/A N/A N14G22      N/A
UPOLU AIRPORT* NOT AVBL
KAMUELA*       PTCLDY    73  63  68 NE26      30.02F
HAKALAU*         N/A     61  55  81 NE3         N/A
KALOKO-HONOKO*   N/A     86  68  54 W6G12     29.89S
PALI 2*          N/A     75  61  60 SW21G33     N/A
KEALAKOMO*       N/A     86  64  48 NE24G35     N/A
KAUPULEHU*     NOT AVBL
KAPAPALA*        N/A     80  67  63 W9G20       N/A
LOWER KAHUKU*    N/A     66  66 100 SE2G9       N/A
PUHE CS*         N/A     88  66  48 SW3G12      N/A  HX  90
PUHO CS*         N/A     87  66  49 W3G9        N/A
PTA KEAMUKU*     N/A     73  55  53 CALM        N/A
WAIKOLOA*      NOT AVBL
$$

HIZ027>028-270300-
BIG ISLAND OF HAWAII INTERIOR AND SUMMMITS-

CITY           SKY/WX    TMP DP  RH WIND       PRES   REMARKS
BRADSHAW FIELD SUNNY     72  31  22 S14G23    30.24S
MK VISITOR CEN   N/A     54  37  54 SE12        N/A
MAUNA KEA*       N/A     45  27  49 CALM        N/A
MAUNA LOA*       N/A     48  39  71 MISG        N/A
MAUNA LOA 1*   NOT AVBL
PTA KIPUKA*      N/A     66  54  63 NW12G20     N/A
PTA RANGE 17*    N/A     68  52  56 SW7G15      N/A
PTA WEST*        N/A     75  55  50 NW12G18     N/A
NENE CABIN*    NOT AVBL
AHUMOA*        NOT AVBL
PTA PORTABLE*  NOT AVBL
PUU MALI*        N/A     61  52  72 E24G35      N/A
$$

HIC003-270300-
NORTHWEST ISLANDS-

CITY           SKY/WX    TMP DP  RH WIND       PRES   REMARKS
MIDWAY ISLAND  MOSUNNY   84  73  70 E14       30.09F HX  91
MIDWAY NOS*      N/A     81 N/A N/A MISG      30.08F
FRENCH FRIGATE NOT AVBL
$$

PHZ110>124-180-270300-
BUOY REPORTS

STATION/POSITION TIME  TEMP    WIND        PRES    WAVE   SWELL
                       AIR SEA DIR/SP/G            HT/PER HT/DIR
                 (UTC) (F)     (DEG/KT/KT) (MB)    (FT/S) (FT/D)
BUOY 51001       NOT AVBL
BUOY 51101       0150   79 80   70/ 14/ 16 1016.6F   7/ 9   5/350
BUOY 51100       NOT AVBL
BUOY 51002       NOT AVBL
BUOY 51003       0150   80 82   60/ 12/ 14 1012.4F   6/ 8   5/ 70
BUOY 51004       0150   80 81   50/ 17/ 19 1011.3R   8/ 8   5/ 70
BARBERS PT BUOY  NOT AVBL
WAIMEA BAY BUOY  0204      82                N/A     5/ 9   2/350
KAILUA BAY BUOY  0204      81                N/A     7/10   2/ 30
LANAI BUOY       0215      82                N/A     2/13   2/180
BARBERS PT 2     NOT AVBL
PAUWELA MAUI     0209      80                N/A     6/ 7   2/340
HILO             0212      81                N/A     7/ 8   2/ 20
KANEOHE BAY BUOY 0206      80                N/A     6/ 6   2/ 20
HANALEI KAUAI    NOT AVBL
KAHULUI HARBOR   0200   81 81   50/ 12/ 20 1014.5R
HONOLULU HARBOR  0200   81 82   60/  6/ 15 1014.9R
KILO NALU        NOT AVBL
HILO HARBOR      0200   81 80   50/  7/  9 1014.1S
MOKUOLOE         0100   80 83   70/ 11/ 16 1014.8F
NAWILIWILI       0200   80 82   60/ 12/ 17 1015.4S
WHOTS BUOY       NOT AVBL
BUOY 51028       NOT AVBL
$$

......................KEY........................................
  SKY/WX - SKY CONDITIONS/PRESENT WEATHER
  TMP    - TEMPERATURE IN FAHRENHEIT
  DWPT   - DEWPOINT IN FAHRENHEIT
  RH     - RELATIVE HUMIDITY IN PERCENT
  WIND   - DIRECTION AND SPEED /MPH FOR ISLANDS...KTS FOR BUOYS/
  PRES   - MEAN SEA LEVEL PRESSURE IN INCHES OF HG
  VSB    - VISIBILITY IN MILES
  HX     - HEAT INDEX
  WCI    - WIND CHILL INDEX
  VRB    - VARIABLE WIND DIRECTION
  N/A    - NOT AVAILABLE




USA.gov is the U.S. government's official web portal to all federal, state and local government web resources and services.